Location: Unspecified
(0.0000°N, 0.0000°E)
Time: 07:24:03
(UTC+02:00)

Transit 2A - Visible Passes

Search period start: 29 June 2017 00:00
Search period end: 09 July 2017 00:00
Orbit: 599 x 961 km, 66.7° (Epoch: 28 June)

Date Brightness Start Highest point End Pass type
(mag) Time Alt. Az. Time Alt. Az. Time Alt. Az.
29 Jun 8.2 06:22:07 10° SSE 06:24:47 15° ESE 06:27:22 10° ENE visible
29 Jun 9.2 20:39:53 10° W 20:41:45 11° WSW 20:43:38 10° SW visible
30 Jun 6.2 07:29:34 10° SW 07:33:43 37° WNW 07:37:43 10° N visible
01 Jul 5.4 06:56:35 19° SSW 06:59:46 72° WNW 07:04:03 10° NNE visible
02 Jul 5.9 06:24:21 38° S 06:25:48 59° ESE 06:30:02 10° NNE visible
03 Jul 7.1 05:52:05 31° ESE 05:52:05 31° ESE 05:55:39 10° NE visible
04 Jul 8.4 05:19:46 13° E 05:19:46 13° E 05:20:42 10° ENE visible
04 Jul 7.1 07:00:18 18° WNW 07:00:39 18° WNW 07:03:36 10° NNW visible
05 Jul 6.8 06:27:55 27° NW 06:27:55 27° NW 06:30:33 10° N visible
06 Jul 7.5 05:55:26 22° N 05:55:26 22° N 05:56:59 10° N visible
07 Jul 8.5 05:22:54 11° NNE 05:22:54 11° NNE 05:23:04 10° NNE visible
